This demonstration page uses our WeatherBlox Daily Observations layout. Learn more.

Left ArrowRight Arrow

31.31129, -92.44514

Hourly Observations for December 26, 2021

Temp ( °F °C ) Dew Point ( °F °C ) Humidity (%) Winds ( mph kmh ) Pressure ( in mb ) Visibility ( mi km ) Precip ( " mm )
12:53 am 00:53 Mostly Cloudy 68 20 64 17.8 87 87 SW 3 6 29.98 1015 9 14 0.00 0.00
1:53 am 01:53 Cloudy with Mist and Fog 66 18.9 64 17.8 93 93 Calm 29.98 1015 6 10 0.00 0.00
2:07 am 02:07 Cloudy with Mist and Fog 65 18.3 63 17.2 93 93 Calm 29.97 1015 5 8 0.00 0.00
2:19 am 02:19 Cloudy with Mist and Fog 65 18.3 63 17.2 93 93 Calm 29.97 1015 3 4 0.00 0.00
2:23 am 02:23 Cloudy with Mist and Fog 65 18.3 63 17.2 93 93 Calm 29.97 1015 1 1 0.00 0.00
2:49 am 02:49 Cloudy with Mist and Fog 66 19 63 17 88 88 Calm 29.98 1015 3 4 0.00 0.00
2:53 am 02:53 Cloudy with Mist and Fog 66 18.9 63 17.2 90 90 Calm 29.98 1015 5 8 0.00 0.00
3:53 am 03:53 Cloudy with Mist and Fog 67 19.4 64 17.8 91 91 SSW 3 6 29.99 1016 5 8 0.00 0.00
4:53 am 04:53 Cloudy with Mist and Fog 66 18.9 64 17.8 93 93 S 3 6 29.99 1016 5 8 0.00 0.00
5:53 am 05:53 Cloudy with Mist and Fog 66 18.9 64 17.8 93 93 SE 5 7 30.00 1016 2 3 0.00 0.00
6:00 am 06:00 Cloudy with Mist and Fog 66 18.9 64 17.8 93 93 SSE 5 7 29.99 1016 1 2 0.00 0.00
6:18 am 06:18 Cloudy with Mist and Fog 66 18.9 64 17.8 93 93 S 5 7 30.00 1016 1 1 0.00 0.00
6:28 am 06:28 Cloudy with Fog 66 18.9 64 17.8 93 93 SSE 5 7 30.00 1016 1 1 0.00 0.00
6:53 am 06:53 Cloudy with Mist and Fog 66 18.9 64 17.8 93 93 S 3 6 30.01 1016 1 1 0.00 0.00
7:03 am 07:03 Cloudy with Mist and Fog 65 18.3 63 17.2 93 93 SSE 3 6 30.01 1016 1 1 0.00 0.00
7:12 am 07:12 Cloudy with Mist and Fog 65 18.3 63 17.2 93 93 SSE 3 6 30.01 1016 1 2 0.00 0.00
7:34 am 07:34 Cloudy with Mist and Fog 65 18.3 64 17.8 97 97 SE 5 7 30.02 1017 3 5 0.00 0.00
7:53 am 07:53 Cloudy with Mist and Fog 66 18.9 64 17.8 93 93 SE 3 6 30.03 1017 4 6 0.00 0.00
8:53 am 08:53 Cloudy 67 19.4 65 18.3 93 93 SSE 7 11 30.03 1017 7 11 0.00 0.00
9:53 am 09:53 Cloudy 72 22.2 66 18.9 82 82 S 9 15 30.04 1017 10 16 0.00 0.00
10:53 am 10:53 Cloudy 75 23.9 65 18.3 71 71 SSW 8 13 30.03 1017 10 16 0.00 0.00
11:53 am 11:53 Cloudy 76 24.4 64 17.8 67 67 SSW 13 20 29.99 1016 10 16 0.00 0.00
12:53 pm 12:53 Cloudy 77 25 63 17.2 62 62 S 14 22 29.96 1015 10 16 0.00 0.00
1:53 pm 13:53 Mostly Cloudy 79 26.1 64 17.8 60 60 SSW 13 20 29.94 1014 10 16 0.00 0.00
2:53 pm 14:53 Partly Cloudy 77 25 63 17.2 62 62 SSW 13 20 29.93 1013 10 16 0.00 0.00
3:53 pm 15:53 Partly Cloudy 78 25.6 64 17.8 62 62 S 13 20 29.92 1013 10 16 0.00 0.00
4:53 pm 16:53 Sunny 76 24.4 62 16.7 62 62 S 10 17 29.92 1013 10 16 0.00 0.00
5:53 pm 17:53 Clear 72 22.2 63 17.2 73 73 S 10 17 29.93 1013 10 16 0.00 0.00
6:53 pm 18:53 Clear 70 21.1 63 17.2 79 79 S 8 13 29.93 1014 10 16 0.00 0.00
7:53 pm 19:53 Mostly Cloudy 69 20.6 63 17.2 81 81 S 8 13 29.93 1014 10 16 0.00 0.00
8:53 pm 20:53 Mostly Cloudy 70 21.1 64 17.8 82 82 S 10 17 29.94 1014 10 16 0.00 0.00
9:53 pm 21:53 Clear 70 21.1 65 18.3 84 84 S 12 19 29.94 1014 10 16 0.00 0.00
10:53 pm 22:53 Mostly Clear 70 21.1 65 18.3 84 84 S 10 17 29.94 1014 10 16 0.00 0.00
11:42 pm 23:42 Mostly Cloudy 70 21.1 65 18.3 84 84 S 12 19 29.93 1013 10 16 0.00 0.00
11:53 pm 23:53 Cloudy 71 21.7 65 18.3 81 81 SSW 12 19 29.93 1014 10 16 0.00 0.00

Powered by AerisWeather